Regional Weather Roundup
Issued by NWS

Home | Current Version | Previous Version | Text Only | Print | Product List | Glossary On
Versions: 1 2 3 4 5 6 7 8 9 10 11 12 13 14 15 16 17 18 19 20 21 22 23 24 25 26 27 28 29 30 31 32 33 34 35 36 37 38 39 40 41 42 43 44 45 46 47 48 49 50
715
ASUS43 KMKX 260811
RWRWI

WISCONSIN REGIONAL WEATHER ROUNDUP
NATIONAL WEATHER SERVICE MILWAUKEE/SULLIVAN WI
300 AM CDT FRI AUG 26 2016

NOTE: "FAIR" INDICATES FEW OR NO CLOUDS BELOW 12,000 FEET WITH NO
SIGNIFICANT WEATHER AND/OR OBSTRUCTIONS TO VISIBILITY.

WIZ001-002-006>008-014>016-023>028-260900-
NORTHWEST WISCONSIN

CITY           SKY/WX    TMP DP  RH WIND       PRES   REMARKS
SUPERIOR ARPT  FAIR      56  53  91 W7        30.09R
ASHLAND        CLOUDY    57  55  93 SW7       30.08S
HAYWARD        FAIR      56  53  90 CALM      30.11S
SIREN          FAIR      56  54  94 W3        30.13R
CUMBERLAND     FAIR      54  52  94 W6        30.14R
RICE LAKE      FAIR      53  51  93 CALM      30.15R
CHETEK         NOT AVBL
LADYSMITH      FAIR      55  53  93 W5        30.13R
EAU CLAIRE     FAIR      55  54  96 CALM      30.12R
MENOMONIE      FAIR      58  55  89 W5        30.13S
NEW RICHMOND   FAIR      53  53  99 CALM      30.14S
OSCEOLA        FAIR      52  52 100 CALM      30.16S
$$

WIZ003>005-009-010-017-018-260900-
NORTH CENTRAL WISCONSIN

CITY           SKY/WX    TMP DP  RH WIND       PRES   REMARKS
MANITOWISH WTR NOT AVBL
ARBOR VITAE    FAIR      57  55  92 CALM      30.10R
WOODRUFF       FAIR      57  55  92 CALM      30.10R
RHINELANDER    FAIR      53  53 100 W6        30.10S
EAGLE RIVER    FAIR      53  53 100 CALM      30.08S
LAND O LAKES   FAIR      54  52  94 SW3       30.09S
PHILLIPS       FAIR      54  53  97 CALM      30.10S
TOMAHAWK       FAIR      49  48  97 CALM      30.11S
MEDFORD        FAIR      54  54 100 W5        30.11S
MERRILL        FAIR      55  54  97 W5        30.11S
$$

WIZ029-030-035-036-043>047-260900-
CENTRAL WISCONSIN

CITY           SKY/WX    TMP DP  RH WIND       PRES   REMARKS
WAUSAU         FAIR      57  53  86 NW9       30.09S
MOSINEE        FAIR      54  54 100 W3        30.12S
MARSHFIELD     FAIR      55  52  89 CALM      30.11S
STEVENS POINT  FAIR      58  53  85 CALM      30.12S
WAUPACA        FAIR      62  58  87 W3        30.11R
WAUTOMA        FAIR      57  55  93 CALM      30.12R
WISC RAPIDS    FAIR      57  56  96 W3        30.13S
CAMP DOUGLAS   FAIR      52  52 100 NW3       30.12S FOG
$$

WIZ011>013-019>022-031-037>040-048>050-260900-
NORTHEAST WISCONSIN

CITY           SKY/WX    TMP DP  RH WIND       PRES   REMARKS
ANTIGO         FAIR      53  53  97 CALM      30.11R
SHAWANO        FAIR      60  55  85 W3        30.10R
OCONTO         NOT AVBL
STURGEON BAY   FAIR      64  56  75 W7        30.07R
GREEN BAY      FAIR      58  58 100 W6        30.09R
MANITOWOC      FAIR      62  56  80 W5        30.09R
APPLETON       FAIR      55  55 100 W7        30.09R
CLINTONVILLE   FAIR      57  54  88 W3        30.10R
OSHKOSH        FAIR      60  55  83 W3        30.10R
$$

WIZ032>034-041-042-053>061-260900-
SOUTHWEST WISCONSIN

CITY           SKY/WX    TMP DP  RH WIND       PRES   REMARKS
LA CROSSE      FAIR      62  60  93 SE3       30.13R
SPARTA         FAIR      53  53 100 CALM      30.14R
VIROQUA        FAIR      57  56  98 CALM      30.14S
BOSCOBEL       FOG       59  58  96 SW3       30.13S VSB 3/4
PRAIRIE DU CHI FAIR      60  58  94 CALM      30.13R
PLATTEVILLE    FAIR      59  59 100 CALM      30.15R
$$

WIZ056-057-062-063-064-067-068-260900-
SOUTH CENTRAL WISCONSIN

CITY           SKY/WX    TMP DP  RH WIND       PRES   REMARKS
REEDSBURG      NOT AVBL
BARABOO/DELLS  FAIR      58  56  90 CALM      30.13R
LONE ROCK      FOG       58  57  97 CALM      30.14R VSB 1/2
MINERAL POINT  FAIR      61  59  94 CALM      30.14R
MADISON        FAIR      61  60  97 CALM      30.12R
MIDDLETON      FAIR      60  60 100 CALM      30.13S
WATERTOWN      FAIR      60  60 100 CALM      30.12R
MONROE         FAIR      63  61  94 NW8       30.13R
JANESVILLE     FAIR      63  61  94 CALM      30.12R FOG
$$

WIZ051-052-058>065-066-070>072-260900-
SOUTHEAST WISCONSIN

CITY           SKY/WX    TMP DP  RH WIND       PRES   REMARKS
MILWAUKEE      FAIR      70  61  73 W6        30.11R
WAUKESHA       FAIR      63  59  88 W5        30.13R
MILWAUKEE/TIMM FAIR      63  57  82 NW3       30.11R
RACINE         FAIR      65  61  87 W3        30.12R
BURLINGTON     FAIR      60  59  97 CALM      30.12R
KENOSHA        FAIR      63  60  90 W6        30.11S
FOND DU LAC    FAIR      61  57  87 W5        30.11R
SHEBOYGAN      FAIR      57  55  93 CALM      30.10R
WEST BEND      FAIR      61  59  94 CALM      30.11R
JUNEAU         FAIR      58  58  97 W3        30.13R
$$

LSZ147-162-260900-
LAKE SUPERIOR

STATION/POSITION TIME  TEMP    WIND        PRES    WAVE
                       AIR SEA DIR/SP/G            HT/PER
                 (UTC) (F)     (DEG/KT/KT) (MB)    (FT/S)
W MID LAKE BUOY  0750   65 66  280/ 12/ 14 1016.1R   3/ 5
DEVILS ISLAND    0800   63     270/ 12/ 15 1017.6F
PORT WING        0700   64     270/ 10/ 14 1018.6R
SAXON HARBOR     0700   60     200/  6/  9 1017.9R
$$

LMZ867-665-643>646-260900-
LAKE MICHIGAN

STATION/POSITION TIME  TEMP    WIND        PRES    WAVE
                       AIR SEA DIR/SP/G            HT/PER
                 (UTC) (F)     (DEG/KT/KT) (MB)    (FT/S)
CHAMBERS ISLAND  0700   65     270/  3/  8 1017.3R
N MID LAKE BUOY  0750   67 70  290/ 14/ 17 1016.1S   1/ 4
NORTHPORT PIER   0700   67     280/  4/  9 1016.9S
SISTER BAY       0722   67     310/ 16/ 18   N/A
KEWAUNEE LAKESHO 0700   63     300/  4/  7 1017.4R
SHEBOYGAN LAKESH 0800   66     280/  6/  6 1018.5R
PORT WASHINGTON  0740   66     260/  3/  4 1019.6S
ATWATER BUOY     0800   62 53  280/  4/  4   N/A
MILWAUKEE LAKESH 0710   70     290/  7/  9   N/A
S MID LAKE BUOY  0750   74 74  300/ 14/ 16 1018.3R   1/ 3
KENOSHA   LAKESH 0800   69     290/  8/ 11 1019.0S
$$

TC  - TEMPERATURE IN CELSIUS
VSB - VISIBILITY IN STATUTE MILES
WCI - WIND CHILL INDEX
HX  - HEAT INDEX





USA.gov is the U.S. government's official web portal to all federal, state and local government web resources and services.